Regional Weather Roundup
Issued by NWS

Home | Current Version | Previous Version | Graphics & Text | Print | Product List | Glossary Off
Versions: 1 2 3 4 5 6 7 8 9 10 11 12 13 14 15 16 17 18 19 20 21 22 23 24 25 26 27 28 29 30 31 32 33 34 35 36 37 38 39 40 41 42 43 44 45 46 47 48 49 50

000
ASUS43 KMPX 032210
RWRMN
WEATHER ROUNDUP FOR MINNESOTA
NATIONAL WEATHER SERVICE TWIN CITIES/CHANHASSEN MN
500 PM CDT FRI JUL 03 2015


NOTE: "FAIR" INDICATES FEW OR NO CLOUDS BELOW 12,000 FEET WITH NO
SIGNIFICANT WEATHER AND/OR OBSTRUCTIONS TO VISIBILITY. N/A MEANS
CURRENT SKY AND/OR WEATHER CONDITIONS ARE NOT AVAILABLE.

MNZ060>063-068>070-032300-
   Twin Cities Metro

CITY           SKY/WX    TMP DP  RH WIND       PRES   REMARKS
TWIN CITIES    CLOUDY    79  57  46 W7        29.91F
ST PAUL        MOSUNNY   78  59  51 SW9       29.91F
CRYSTAL        MOSUNNY   81  58  45 SW12      29.90F
BLAINE         SUNNY     81  59  47 W7        29.90F
LAKEVILLE      MOSUNNY   75  55  50 W3        29.93F
EDEN PRAIRIE   MOSUNNY   78  60  53 SW7       29.91F
SOUTH ST PAUL  MOSUNNY   78  57  48 SW8       29.91F
LAKE ELMO      FAIR      79  61  53 SW10      29.92F
$$
MNZ001>005-007-008-013>017-022>024-027-028-032300-
   Northwest Minnesota

CITY           SKY/WX    TMP DP  RH WIND       PRES   REMARKS
BEMIDJI        MOSUNNY   78  58  50 NW10      29.92S
HALLOCK        SUNNY     79  63  57 NW5       29.91S HAZE
ROSEAU         SUNNY     79  59  50 N6        29.91S
WARROAD        SUNNY     77  61  57 E8        29.91F
THIEF RVR FALL SUNNY     79  61  53 NW8       29.92F
CROOKSTON      SUNNY     79  63  57 N6        29.92S HAZE
FOSSTON        SUNNY     77  61  57 CALM      29.93F HAZE
DETROIT LAKES  MOSUNNY   79  59  50 N3        29.94F HAZE
MOORHEAD       MOSUNNY   81  63  54 CALM      29.91F HAZE
PARK RAPIDS    CLOUDY    81  60  48 N7        29.91F HAZE
MAHNOMEN       FAIR      78  60  53 N6        29.92S
$$
MNZ006-009>011-018-025>026-032300-
   North Central Minnesota

CITY           SKY/WX    TMP DP  RH WIND       PRES   REMARKS
BAUDETTE       SUNNY     79  54  41 N7        29.91S
FLAG ISLAND    SUNNY     79  54  41 CALM      29.89F
INTL FALLS     MOSUNNY   79  51  37 N9        29.89S
WASKISH        SUNNY     79  54  41 N6        29.91S
BIG FORK       SUNNY     79  54  41 NW3       29.90S
LONGVILLE      SUNNY     77  59  53 NW5       29.91F HAZE
GRAND RAPIDS   SUNNY     79  55  44 NW9       29.90S
CRANE LAKE     SUNNY     75  52  43 NW10      29.89S
ORR            SUNNY     79  52  38 CALM      29.87S
COOK           MOSUNNY   77  55  47 N8        29.89S
WALKER         FAIR      77  57  49 N7        29.91F
$$
MNZ012-019>021-037-032300-
   Northeast Minnesota

CITY           SKY/WX    TMP DP  RH WIND       PRES   REMARKS
DULUTH         MOSUNNY   80  60  50 NW10      29.87S SMOKE
ELY            SUNNY     77  52  41 NW6       29.87S
HIBBING        SUNNY     77  56  48 NW12      29.89R
DULUTH HARBOR  SUNNY     82  63  51 NW13      29.84F THUNDER
TWO HARBORS    SUNNY     82  63  51 NW6       29.84R
SILVER BAY     MOSUNNY   82  55  39 W6        29.83S
GRAND MARAIS     N/A     54  49  83 SW9       29.80S
G MARAIS ARPRT SUNNY     75  48  38 NW9       29.87S
$$
MNZ029>031-032-039>041-046>048-054>057-064-032300-
   West Central Minnesota

CITY           SKY/WX    TMP DP  RH WIND       PRES   REMARKS
FERGUS FALLS   SUNNY     81  61  50 N5        29.90F HAZE
WHEATON        SUNNY     79  64  61 CALM      29.93F HAZE
MORRIS         SUNNY     82  64  54 NW6       29.91F HAZE
ALEXANDRIA     MOSUNNY   79  63  57 N5        29.94F HAZE
ELBOW LAKE     FAIR      79  64  58 CALM      29.92S HAZE
WADENA         MOSUNNY   79  59  50 N3        29.92S HAZE
GLENWOOD       MOSUNNY   81  64  57 NW6       29.93F HAZE
APPLETON       MOSUNNY   84  63  48 N3        29.91F
BENSON         SUNNY     81  63  54 N6        29.92S
ORTONVILLE     MOSUNNY   81  63  54 N9        29.92S HAZE
MADISON        SUNNY     82  63  51 CALM      29.92S
WILLMAR          N/A     81  64  57 CALM      29.93F
$$
MNZ033>034-036-042>043-049>051-058-059-032300-
   Central Minnesota

CITY           SKY/WX    TMP DP  RH WIND       PRES   REMARKS
ST CLOUD       PTSUNNY   81  64  56 SW12      29.90F
SAUK CENTRE    FAIR      79  63  57 W8        29.92S HAZE
PAYNESVILLE    MOSUNNY   77  63  62 S6        29.92F
AITKIN         MOSUNNY   81  64  57 NW3       29.88F HAZE
PINE RIVER       N/A     81  61  50 NW5       29.94F HAZE
BRAINERD       CLOUDY    80  61  52 N3        29.90F HAZE
STAPLES        MOSUNNY   81  57  44 NW6       29.91F HAZE
LONG PRAIRIE   CLOUDY    79  61  53 NW5       29.93S HAZE
LITTLE FALLS   CLOUDY    79  59  50 NW6       29.91S HAZE
LITCHFIELD     MOSUNNY   79  61  53 W7        29.93F
BUFFALO        MOSUNNY   78  57  48 SW3       29.92F
MAPLE LAKE     MOSUNNY   79  63  58 SW8       29.92F
$$
MNZ037-044-045-052-053-032300-
   East Central Minnesota

CITY           SKY/WX    TMP DP  RH WIND       PRES   REMARKS
PRINCETON      MOSUNNY   81  64  57 SW7       29.89F
MORA           MOSUNNY   75  63  64 NW7       29.90F HAZE
CAMBRIDGE      MOSUNNY   81  64  57 CALM      29.88S
RUSH CITY      PTSUNNY   78  64  63 W8        29.89S
MOOSE LAKE     SUNNY     79  63  57 W6        29.86S HAZE
HINCKLEY       MOCLDY    81  68  65 W9        29.88F HAZE
CLOQUET        SUNNY     81  55  41 NW8       29.87F HAZE
MCGREGOR       MOSUNNY   79  61  53 W7        29.89F
$$
MNZ071>073-080-081-089-090-097-098-032300-
   Southwest Minnesota

CITY           SKY/WX    TMP DP  RH WIND       PRES   REMARKS
MONTEVIDEO     SUNNY     86  66  51 NW3       29.92F
GRANITE FALLS  SUNNY     81  64  57 CALM      29.94S
CANBY          MOSUNNY   81  65  58 W3        29.93F
MARSHALL       MOSUNNY   82  63  51 NW3       29.92F
REDWOOD FALLS  SUNNY     81  58  45 VRB3      29.93F
OLIVIA         SUNNY     77  57  50 CALM      29.93S
PIPESTONE      MOSUNNY   79  63  57 W5        29.97F
WINDOM         SUNNY     79  55  44 SW7       29.96F
WORTHINGTON    SUNNY     75  55  50 NW5       29.97F
JACKSON        SUNNY     79  55  44 W5        29.98S
TRACY          MOSUNNY   81  63  54 SW3       29.95F
SLAYTON        MOSUNNY   78  59  50 CALM      29.98S
$$
MNZ065>067-074>077-082>085-091>093-032300-
   South Central Minnesota

CITY           SKY/WX    TMP DP  RH WIND       PRES   REMARKS
MANKATO        SUNNY     77  54  44 W8        29.95S
NEW ULM        SUNNY     77  55  47 CALM      29.94S
FAIRMONT       SUNNY     79  46  31 CALM      29.96S
GLENCOE        MOSUNNY   79  60  50 W5        29.93S
FARIBAULT      SUNNY     77  54  44 SW6       29.95S
OWATONNA       SUNNY     77  50  38 W7        29.95S
WASECA         SUNNY     77  54  44 SW6       29.96F
ALBERT LEA     SUNNY     77  52  41 W5        29.96F
$$
MNZ078>079-086>088-094>096-032300-
   Southeast Minnesota

CITY           SKY/WX    TMP DP  RH WIND       PRES   REMARKS
ROCHESTER      SUNNY     77  55  46 W9        29.96S
RED WING       SUNNY     79  54  41 W8        29.91F
STANTON        SUNNY     77  55  47 W7        29.93S
DODGE CENTER   SUNNY     75  54  46 W9        29.96S
WINONA         SUNNY     77  54  44 NW3       29.93F
AUSTIN         SUNNY     79  52  38 SW7       29.95F
PRESTON        SUNNY     74  55  51 NW3       29.96F
$$
ABBREVIATIONS USED IN REMARKS
   TC - TEMPERATURES IN CELSIUS
  WCI - WIND CHILL INDEX
   HX - HEAT INDEX
  VSB - VISIBILITY
$$


USA.gov is the U.S. government's official web portal to all federal, state and local government web resources and services.